Regional Weather Roundup
Issued by NWS State College, PA

Home | Current Version | Previous Version | Text Only | Print | Product List | Glossary Off
Versions: 1 2 3 4 5 6 7 8 9 10 11 12 13 14 15 16 17 18 19 20 21 22 23 24 25 26 27 28 29 30 31 32 33 34 35 36 37 38 39 40 41 42 43 44 45 46 47 48 49 50

000
ASUS41 KCTP 230310
RWRCTP

REGIONAL WEATHER ROUNDUP
NATIONAL WEATHER SERVICE STATE COLLEGE PA
1100 PM EDT TUE APR 22 2014

Note: "fair" indicates few or no clouds below 12,000 feet with no
significant weather and/or obstructions to visibility.

* = STATION THAT DOES NOT REPORT PRECIPITATION /E.G. RAIN...SNOW...ETC/
    THUNDER OR FOG.

PAZ002>004-007>009-013>016-020>023-029>032-230400-
WESTERN PENNSYLVANIA

CITY           SKY/WX    TMP DP  RH WIND       PRES   REMARKS
ERIE           LGT RAIN  39  35  86 W9G18     29.83R
MEADVILLE      LGT RAIN  38  34  85 NW13      29.81R
FRANKLIN*      CLOUDY    37  34  87 NW10      29.82R
NEW CASTLE     CLOUDY    44  36  73 NW13      29.84R
BEAVER COUNTY  NOT AVBL
BUTLER*        CLOUDY    45  34  65 W6        29.82S
PITTSBURGH INT CLOUDY    48  34  58 NW15      29.81R
PITTSBURGH     CLOUDY    49  33  54 NW12G20   29.80R
INDIANA*       CLOUDY    45  36  70 NW8       29.78S
LATROBE        CLOUDY    46  37  71 W5        29.81S
WASHINGTON CO* CLOUDY    48  34  57 NW10G17   29.84R
$$

PAZ004>006-010>012-017>019-024>028-033>037-041-042-045-046-049>053-230400-
CENTRAL PENNSYLVANIA

CITY           SKY/WX    TMP DP  RH WIND       PRES   REMARKS
BRADFORD       LGT RAIN  37  32  82 W14G21    29.71S
DUBOIS         CLOUDY    42  34  73 NW10G21   29.73F
CLEARFIELD     CLOUDY    43  32  65 NW18      29.73R
JOHNSTOWN      PTCLDY    41  34  76 W18G30    29.73R
ALTOONA        PTCLDY    45  35  68 NW8       29.73S
STATE COLLEGE  CLOUDY    47  29  50 NW8       29.72S
WILLIAMSPORT   PTCLDY    52  36  54 W15G24    29.64R
SELINSGROVE    CLEAR     53  39  59 W8G17     29.67R
FT INDIANTOWN  NOT AVBL
CAPITAL CITY   CLEAR     54  40  59 W15       29.65R
HARRISBURG     PTCLDY    56  39  53 NW13G22   29.64R
YORK           PTCLDY    54  47  77 NW7       29.65R
$$

PAZ038>040-043-044-047-048-054-055-060>062-067>071-230400-
EASTERN PENNSYLVANIA

CITY           SKY/WX    TMP DP  RH WIND       PRES   REMARKS
SCRANTON       CLOUDY    53  48  83 S6        29.58R
MOUNT POCONO   MOCLDY    51  45  79 W9        29.55F
ALLENTOWN      CLEAR     54  47  77 SW8       29.56F
QUAKERTOWN*    CLEAR     55  46  71 SW3       29.57F
READING        CLEAR     55  48  77 W12       29.58S
LANCASTER      PTCLDY    52  48  86 W13       29.61S
COATESVILLE    CLEAR     54  48  82 W6        29.61S
POTTSTOWN      CLEAR     52  50  93 SW5       29.60S
BLUE BELL      CLEAR     54  50  87 W3        29.57F
DOYLESTOWN     CLEAR     55  47  74 SW6       29.55F
WILLOW GROVE   NOT AVBL
NORTH PHILA    PTCLDY    59  45  59 W8        29.57F
PHILADELPHIA   PTCLDY    57  48  72 SW9       29.59F
$$



USA.gov is the U.S. government's official web portal to all federal, state and local government web resources and services.